Погода в Наньяне

Китай     32°59′18″N   112°31′48″E
темп.,
°C
ветер,
м/с
пор.,
м/с
влажн.,
%
обл.,
%
осадки,
мм/ч
давл.,
гПа
погр.,
м
9 марта, вт
вт923:00+6з1288100 0.0 102770
02:00+5з2292100 0.0 102637
05:00+4з22922 0.0 102623
08:00+5сз11851 0.0 102759
11:00+12в11630 0.0 1027721
14:00+15вюв225333 0.0 10251276
17:00+15вюв225267 0.0 10241274
20:00+10ююв227084 0.0 102624
10 марта, ср
ср1023:00+8в228011 0.0 102726
02:00+7всв22886 0.0 102724
05:00+6св23920 0.0 102636
08:00+8св22850 0.0 1027106
11:00+13в346534 0.0 1026926
14:00+13вюв236767 0.0 1023763
17:00+13св0171100 0.0 102258
20:00+10ссв2385100 0.9 1023111
11 марта, чт
чт1123:00+10св3495100 2.9 1024165
02:00+10ссв1196100 2.9 102423
05:00+9ссв119483 0.0 102322
08:00+10ссв009250 0.0 102442
11:00+14ссв237466 0.0 1025675
14:00+17всв336279 0.1 10221051
17:00+16вюв336597 0.0 1021761
20:00+12вюв228381 0.0 102322
12 марта, пт
пт1223:00+10всв11888 0.0 102422
02:00+10всв11904 0.0 102322
05:00+9в01910 0.0 102322
08:00+10в11881 0.0 102478
11:00+16вюв22699 0.0 1024743
14:00+18ююв225952 0.0 10221125
17:00+18ю2260100 0.0 10201079
20:00+14ююз1278100 0.0 102124
13 марта, сб
сб1323:00+13сз128567 0.0 102123
02:00+12ююз128842 0.0 102123
05:00+11ю11899 0.0 102022
08:00+13ююз23855 0.0 1021103
11:00+18ююв33670 0.0 1020781
14:00+21ююв336024 0.0 10171104
17:00+21ююв346374 0.0 10151018
20:00+16юв227744 0.0 101623